COSMOS 1833

Last updated on Thu Nov 21 2024 00:02:12 GMT+0000 (Coordinated Universal Time)

1 17589U 87027A 24325.20635565 -.00000268 00000+0 -11775-3 0 9993 2 17589 70.9185 243.3269 0025093 206.7021 153.2809 14.13000277943287
UTC large
Height (km)
Speed (km/s)
/
Latitude / Longitude
Inclination (degrees)
Orbital Period (minutes)
Azimuth
Elevation
Range (km)
Doppler Factor

Next 0 passes for location: London (51.5072 / 0.1276)

Sorry there are no passes over London.